FW8688 Weather Reports


Display with metric or nautical units.
time (UTC)temp
F
wind
direction
speed
MPH
gust
MPH
rain 1hr
in
rain 24hr
in
rain mn
in
humidity
%
barometer
mb
20260509182805 69 356 9.0 17.0 0.00 0.00 0.00 20 1016.0
20260509182307 69 15 12.0 20.0 0.00 0.00 0.00 19 1016.0
20260509181305 69 348 10.0 15.0 0.00 0.00 0.00 20 1016.0
20260509180305 68 358 11.0 15.0 0.00 0.00 0.00 20 1015.9
20260509175805 68 4 12.0 18.0 0.00 0.00 0.00 20 1015.9
20260509175306 68 357 9.0 20.0 0.00 0.00 0.00 21 1015.9
20260509174805 69 353 13.0 20.0 0.00 0.00 0.00 21 1015.9
20260509174305 68 355 12.0 20.0 0.00 0.00 0.00 21 1015.9
20260509173306 68 8 12.0 17.0 0.00 0.00 0.00 20 1016.0
20260509172805 68 357 6.0 14.0 0.00 0.00 0.00 21 1016.0
20260509172306 68 354 9.0 16.0 0.00 0.00 0.00 22 1016.1
20260509171805 68 316 10.0 17.0 0.00 0.00 0.00 22 1016.1
20260509171305 67 328 6.0 15.0 0.00 0.00 0.00 24 1016.1
20260509170805 67 356 9.0 13.0 0.00 0.00 0.00 23 1016.0
20260509170305 68 0 10.0 15.0 0.00 0.00 0.00 22 1016.0
20260509164805 67 340 9.0 15.0 0.00 0.00 0.00 23 1016.1
20260509163806 67 319 11.0 17.0 0.00 0.00 0.00 24 1016.1
20260509162805 67 346 9.0 14.0 0.00 0.00 0.00 24 1016.2
20260509162307 67 354 8.0 12.0 0.00 0.00 0.00 24 1016.2
20260509161305 66 8 11.0 16.0 0.00 0.00 0.00 24 1016.2
20260509160804 66 13 7.0 14.0 0.00 0.00 0.00 24 1016.1
20260509160305 66 353 10.0 15.0 0.00 0.00 0.00 24 1016.1
20260509155805 66 338 9.0 14.0 0.00 0.00 0.00 25 1016.1
20260509155306 65 342 8.0 16.0 0.00 0.00 0.00 25 1016.1
20260509153805 65 6 6.0 10.0 0.00 0.00 0.00 27 1016.0
20260509153305 65 6 9.0 13.0 0.00 0.00 0.00 27 1016.0
20260509152805 64 350 8.0 13.0 0.00 0.00 0.00 27 1016.0
20260509152306 64 341 9.0 13.0 0.00 0.00 0.00 28 1015.9
20260509151804 64 4 8.0 17.0 0.00 0.00 0.00 28 1015.9
20260509151306 64 346 9.0 15.0 0.00 0.00 0.00 29 1015.9
20260509150805 64 336 7.0 12.0 0.00 0.00 0.00 30 1015.8
20260509150305 63 354 6.0 14.0 0.00 0.00 0.00 31 1015.7
20260509145805 63 356 9.0 13.0 0.00 0.00 0.00 31 1015.7
20260509145306 63 356 7.0 12.0 0.00 0.00 0.00 31 1015.7
20260509144805 63 7 8.0 13.0 0.00 0.00 0.00 31 1015.7
20260509144305 63 358 9.0 13.0 0.00 0.00 0.00 31 1015.7
20260509143805 62 5 7.0 12.0 0.00 0.00 0.00 32 1015.8
20260509143304 62 352 6.0 10.0 0.00 0.00 0.00 33 1015.7
20260509142805 62 358 5.0 10.0 0.00 0.00 0.00 34 1015.7
20260509142307 61 356 3.0 7.0 0.00 0.00 0.00 35 1015.7
20260509141305 61 17 3.0 6.0 0.00 0.00 0.00 36 1015.7
20260509140804 60 7 3.0 7.0 0.00 0.00 0.00 36 1015.7
20260509140304 60 9 4.0 8.0 0.00 0.00 0.00 36 1015.7
20260509135306 59 12 6.0 8.0 0.00 0.00 0.00 37 1015.7
20260509134805 59 348 3.0 8.0 0.00 0.00 0.00 37 1015.5
20260509134305 59 344 5.0 8.0 0.00 0.00 0.00 37 1015.5
20260509133804 58 358 6.0 10.0 0.00 0.00 0.00 37 1015.3
20260509133305 58 344 5.0 8.0 0.00 0.00 0.00 37 1015.3
20260509132804 58 357 4.0 8.0 0.00 0.00 0.00 38 1015.3
20260509132306 57 351 2.0 6.0 0.00 0.00 0.00 38 1015.2
20260509131804 57 317 2.0 5.0 0.00 0.00 0.00 37 1015.2
20260509131304 57 356 0.0 3.0 0.00 0.00 0.00 38 1015.2
20260509130804 57 323 2.0 6.0 0.00 0.00 0.00 38 1015.0
20260509130305 57 339 3.0 6.0 0.00 0.00 0.00 38 1015.0
20260509125805 57 345 1.0 3.0 0.00 0.00 0.00 38 1014.7
20260509125307 57 316 2.0 3.0 0.00 0.00 0.00 38 1014.7
20260509124805 57 5 0.0 3.0 0.00 0.00 0.00 37 1014.6
20260509123805 57 314 1.0 5.0 0.00 0.00 0.00 37 1014.4
20260509123305 57 326 4.0 6.0 0.00 0.00 0.00 37 1014.4
20260509122805 57 1 3.0 5.0 0.00 0.00 0.00 37 1014.1
20260509122306 57 349 5.0 9.0 0.00 0.00 0.00 37 1014.1
20260509121805 57 0 5.0 12.0 0.00 0.00 0.00 38 1014.1
20260509121305 57 332 2.0 9.0 0.00 0.00 0.00 38 1013.8
20260509120805 57 318 5.0 12.0 0.00 0.00 0.00 38 1013.8
20260509120305 57 319 4.0 12.0 0.00 0.00 0.00 37 1013.8
20260509115307 57 324 5.0 12.0 0.00 0.00 0.00 38 1013.8
20260509114805 57 332 5.0 10.0 0.00 0.00 0.00 38 1013.8
20260509114305 57 302 5.0 7.0 0.00 0.00 0.00 38 1013.8
20260509113804 57 286 5.0 7.0 0.00 0.00 0.00 39 1013.8
20260509113304 58 268 6.0 9.0 0.00 0.00 0.00 38 1013.8
20260509112307 59 251 5.0 7.0 0.00 0.00 0.00 37 1013.6
20260509111805 59 283 5.0 9.0 0.00 0.00 0.00 37 1013.6
20260509111305 59 279 3.0 7.0 0.00 0.00 0.00 36 1013.5
20260509110805 59 303 5.0 8.0 0.00 0.00 0.00 36 1013.5
20260509110305 60 321 4.0 8.0 0.00 0.00 0.00 35 1013.5
20260509105306 60 345 4.0 10.0 0.00 0.00 0.00 35 1013.4
20260509104805 60 355 8.0 13.0 0.00 0.00 0.00 35 1013.4
20260509104304 60 357 6.0 14.0 0.00 0.00 0.00 36 1013.3
20260509103304 60 350 7.0 12.0 0.00 0.00 0.00 36 1013.2
20260509102805 61 357 7.0 12.0 0.00 0.00 0.00 36 1013.2
20260509102306 61 0 6.0 13.0 0.00 0.00 0.00 37 1013.2
20260509101805 61 10 5.0 12.0 0.00 0.00 0.00 37 1013.2
20260509101305 61 340 7.0 14.0 0.00 0.00 0.00 36 1013.1
20260509100804 61 354 9.0 15.0 0.00 0.00 0.00 36 1013.0
20260509095805 61 351 10.0 17.0 0.00 0.00 0.00 36 1013.0
20260509094804 61 353 9.0 15.0 0.00 0.00 0.00 37 1012.4
20260509094304 61 355 7.0 14.0 0.00 0.00 0.00 37 1012.4
20260509093804 61 347 6.0 14.0 0.00 0.00 0.00 38 1012.4
20260509092805 61 357 9.0 14.0 0.00 0.00 0.00 38 1012.7
20260509091805 61 3 7.0 14.0 0.00 0.00 0.00 39 1012.4
20260509091304 61 356 8.0 12.0 0.00 0.00 0.00 39 1012.4
20260509085805 61 357 7.0 14.0 0.00 0.00 0.00 42 1012.3
20260509084805 61 356 8.0 12.0 0.00 0.00 0.00 42 1012.2
20260509084305 61 359 7.0 12.0 0.00 0.00 0.00 42 1012.1
20260509083305 62 353 7.0 12.0 0.00 0.00 0.00 41 1012.1
20260509082307 62 354 9.0 12.0 0.00 0.00 0.00 41 1012.1
20260509081805 62 3 7.0 12.0 0.00 0.00 0.00 41 1012.1
20260509081305 62 355 9.0 13.0 0.00 0.00 0.00 40 1012.0
20260509080804 62 357 9.0 13.0 0.00 0.00 0.00 38 1012.0
20260509075804 61 356 7.0 12.0 0.00 0.00 0.00 38 1012.0
20260509075306 61 358 6.0 12.0 0.00 0.00 0.00 38 1012.0
20260509074805 61 356 7.0 12.0 0.00 0.00 0.00 38 1012.0
20260509074305 61 353 7.0 12.0 0.00 0.00 0.00 38 1012.0
20260509073805 61 356 7.0 12.0 0.00 0.00 0.00 38 1012.0
20260509073305 61 353 6.0 10.0 0.00 0.00 0.00 38 1011.9
20260509072805 61 357 5.0 8.0 0.00 0.00 0.00 38 1012.0
20260509072306 61 341 2.0 7.0 0.00 0.00 0.00 38 1011.8
20260509071305 62 34 0.0 2.0 0.00 0.00 0.00 38 1011.7
20260509070804 62 34 1.0 3.0 0.00 0.00 0.00 37 1011.6
20260509070304 62 52 2.0 3.0 0.00 0.00 0.00 37 1011.5
20260509065306 62 4 2.0 3.0 0.00 0.00 0.00 37 1011.4
20260509064805 61 355 2.0 3.0 0.00 0.00 0.00 37 1011.4
20260509064305 61 10 1.0 3.0 0.00 0.00 0.00 38 1011.5
20260509063305 61 30 2.0 3.0 0.00 0.00 0.00 39 1011.6
20260509062804 61 7 3.0 5.0 0.00 0.00 0.00 39 1011.6
20260509062306 61 0 3.0 5.0 0.00 0.00 0.00 40 1011.6
20260509061804 61 359 5.0 7.0 0.00 0.00 0.00 40 1011.7
20260509060804 62 2 4.0 6.0 0.00 0.00 0.00 39 1011.9
20260509060305 63 327 6.0 10.0 0.00 0.00 0.00 38 1011.9
20260509055804 63 47 2.0 3.0 0.00 0.00 0.00 35 1011.5
20260509055306 63 48 0.0 2.0 0.00 0.00 0.00 35 1011.5
20260509054805 64 65 1.0 2.0 0.00 0.00 0.00 34 1011.5
20260509054304 64 86 2.0 3.0 0.00 0.00 0.00 33 1011.3
20260509053805 64 103 2.0 3.0 0.00 0.00 0.00 33 1011.3
20260509053305 64 107 2.0 6.0 0.00 0.00 0.00 34 1011.3
20260509052804 64 140 2.0 5.0 0.00 0.00 0.00 34 1011.3
20260509052307 64 137 2.0 5.0 0.00 0.00 0.00 34 1011.2
20260509051304 64 124 2.0 3.0 0.00 0.00 0.00 34 1011.2
20260509050804 64 150 1.0 2.0 0.00 0.00 0.00 34 1011.2
20260509050305 64 118 0.0 1.0 0.00 0.00 0.00 35 1011.2
20260509045805 65 118 0.0 2.0 0.00 0.00 0.00 33 1011.2
20260509045306 65 122 2.0 3.0 0.00 0.00 0.00 34 1011.2
20260509044804 65 156 0.0 0.0 0.00 0.00 0.00 34 1011.1
20260509044304 65 178 0.0 0.0 0.00 0.00 0.00 34 1011.1
20260509043805 65 178 0.0 2.0 0.00 0.00 0.00 33 1011.1
20260509043305 65 178 1.0 2.0 0.00 0.00 0.00 33 1011.1
20260509041804 66 65 1.0 3.0 0.00 0.00 0.00 31 1010.9
20260509041304 67 65 2.0 3.0 0.00 0.00 0.00 31 1010.9
20260509040804 67 20 1.0 2.0 0.00 0.00 0.00 31 1010.9
20260509040305 68 342 0.0 0.0 0.00 0.00 0.00 30 1010.9
20260509035306 68 342 1.0 2.0 0.00 0.00 0.00 30 1010.8
20260509034305 69 162 0.0 0.0 0.00 0.00 0.00 29 1010.8
20260509033804 69 162 0.0 0.0 0.00 0.00 0.00 28 1010.7
20260509033305 69 162 0.0 0.0 0.00 0.00 0.00 28 1010.7
20260509032306 69 162 0.0 0.0 0.00 0.00 0.00 28 1010.6
20260509031805 70 227 2.0 3.0 0.00 0.00 0.00 28 1010.6
20260509031305 70 242 0.0 0.0 0.00 0.00 0.00 27 1010.6
20260509030804 71 242 0.0 2.0 0.00 0.00 0.00 26 1010.6
20260509025306 72 217 2.0 3.0 0.00 0.00 0.00 25 1010.5
20260509024804 73 5 1.0 2.0 0.00 0.00 0.00 23 1010.5
20260509024304 73 76 1.0 3.0 0.00 0.00 0.00 23 1010.4
20260509023804 73 74 1.0 2.0 0.00 0.00 0.00 22 1010.3
20260509023305 74 74 2.0 3.0 0.00 0.00 0.00 21 1010.3
20260509022805 74 72 2.0 3.0 0.00 0.00 0.00 21 1010.3
20260509022306 75 27 0.0 0.0 0.00 0.00 0.00 21 1010.3
20260509021804 75 27 0.0 0.0 0.00 0.00 0.00 20 1010.3
20260509021304 76 27 0.0 1.0 0.00 0.00 0.00 20 1010.2
20260509020804 76 27 0.0 1.0 0.00 0.00 0.00 20 1010.3
20260509020304 76 27 1.0 3.0 0.00 0.00 0.00 20 1010.2
20260509015804 76 353 1.0 3.0 0.00 0.00 0.00 20 1010.2
20260509015306 77 2 1.0 3.0 0.00 0.00 0.00 19 1010.2
20260509014804 77 344 2.0 3.0 0.00 0.00 0.00 19 1010.1
20260509014305 77 14 3.0 6.0 0.00 0.00 0.00 19 1010.2
20260509013804 77 3 4.0 7.0 0.00 0.00 0.00 19 1010.4
20260509013304 77 7 4.0 7.0 0.00 0.00 0.00 19 1010.4
20260509012804 77 350 3.0 7.0 0.00 0.00 0.00 19 1010.4
20260509011304 77 4 5.0 10.0 0.00 0.00 0.00 19 1010.4
20260509010805 76 356 5.0 8.0 0.00 0.00 0.00 19 1010.4
20260509010304 76 23 6.0 14.0 0.00 0.00 0.00 19 1010.4
20260509005804 76 346 7.0 12.0 0.00 0.00 0.00 20 1010.4
20260509005306 76 8 9.0 16.0 0.00 0.00 0.00 20 1010.4
20260509004304 77 0 5.0 15.0 0.00 0.00 0.00 20 1010.5
20260509003304 77 3 7.0 12.0 0.00 0.00 0.00 19 1010.5
20260509002804 76 42 7.0 10.0 0.00 0.00 0.00 19 1010.5
20260509002306 77 25 9.0 14.0 0.00 0.00 0.00 19 1010.5
20260509001804 77 25 9.0 15.0 0.00 0.00 0.00 19 1010.7
20260509001304 77 16 6.0 12.0 0.00 0.00 0.00 20 1010.7
20260509000804 77 11 6.0 12.0 0.00 0.00 0.00 20 1010.7
20260509000305 77 12 5.0 12.0 0.00 0.00 0.00 20 1010.7
20260508235805 77 15 7.0 16.0 0.00 0.00 0.00 20 1010.7
20260508235306 77 13 8.0 13.0 0.00 0.00 0.00 20 1010.6
20260508234805 76 356 9.0 15.0 0.00 0.00 0.00 20 1010.6
20260508234304 76 25 8.0 15.0 0.00 0.00 0.00 20 1010.6
20260508233804 76 20 9.0 15.0 0.00 0.00 0.00 20 1010.6
20260508232804 77 6 10.0 15.0 0.00 0.00 0.00 20 1010.8
20260508232307 77 24 8.0 14.0 0.00 0.00 0.00 20 1010.8
20260508231804 77 6 10.0 15.0 0.00 0.00 0.00 20 1010.8
20260508231304 76 10 8.0 14.0 0.00 0.00 0.00 21 1010.9
20260508230804 76 38 11.0 20.0 0.00 0.00 0.00 20 1010.9
20260508230305 76 35 9.0 17.0 0.00 0.00 0.00 21 1010.9
20260508225805 76 25 11.0 20.0 0.00 0.00 0.00 21 1010.8
20260508224804 76 10 9.0 16.0 0.00 0.00 0.00 21 1011.1
20260508224304 76 38 10.0 18.0 0.00 0.00 0.00 21 1011.2
20260508223804 76 18 10.0 14.0 0.00 0.00 0.00 21 1011.2
20260508223304 76 0 9.0 17.0 0.00 0.00 0.00 22 1011.3
20260508222804 76 17 12.0 17.0 0.00 0.00 0.00 21 1011.3
20260508222306 76 39 9.0 17.0 0.00 0.00 0.00 22 1011.3
20260508220804 76 29 10.0 20.0 0.00 0.00 0.00 22 1011.4
20260508220304 76 19 11.0 18.0 0.00 0.00 0.00 21 1011.4
20260508215805 76 23 11.0 20.0 0.00 0.00 0.00 22 1011.7
20260508215306 75 13 12.0 17.0 0.00 0.00 0.00 22 1011.7
20260508213804 75 28 9.0 18.0 0.00 0.00 0.00 21 1011.8
20260508213304 76 24 10.0 17.0 0.00 0.00 0.00 21 1011.8
20260508212805 75 336 10.0 13.0 0.00 0.00 0.00 22 1011.9
20260508212306 75 349 12.0 18.0 0.00 0.00 0.00 22 1011.9
20260508211805 75 15 10.0 16.0 0.00 0.00 0.00 21 1011.9
20260508211304 75 5 13.0 20.0 0.00 0.00 0.00 21 1012.0
20260508210804 75 23 10.0 25.0 0.00 0.00 0.00 22 1012.0
20260508210305 75 11 11.0 23.0 0.00 0.00 0.00 22 1012.0
20260508205804 75 35 10.0 21.0 0.00 0.00 0.00 22 1012.0
20260508205306 74 24 10.0 21.0 0.00 0.00 0.00 22 1012.0
20260508204805 74 32 12.0 18.0 0.00 0.00 0.00 22 1012.3
20260508204304 74 26 14.0 22.0 0.00 0.00 0.00 22 1012.3
20260508203304 74 35 11.0 23.0 0.00 0.00 0.00 22 1012.3
20260508202307 74 19 10.0 18.0 0.00 0.00 0.00 22 1012.5
20260508201804 74 23 12.0 22.0 0.00 0.00 0.00 22 1012.5
20260508201304 74 29 13.0 22.0 0.00 0.00 0.00 22 1012.5
20260508200804 74 17 13.0 22.0 0.00 0.00 0.00 23 1012.5
20260508200304 74 27 9.0 15.0 0.00 0.00 0.00 22 1012.7
20260508195804 74 27 12.0 20.0 0.00 0.00 0.00 22 1012.7
20260508195306 74 20 11.0 17.0 0.00 0.00 0.00 22 1012.8
20260508194804 74 4 13.0 17.0 0.00 0.00 0.00 22 1012.7
20260508194304 74 26 13.0 18.0 0.00 0.00 0.00 23 1012.6
20260508193804 74 26 13.0 22.0 0.00 0.00 0.00 23 1012.7
20260508193304 74 24 11.0 17.0 0.00 0.00 0.00 23 1012.8
20260508192805 74 23 8.0 15.0 0.00 0.00 0.00 23 1012.8
20260508191304 73 13 7.0 13.0 0.00 0.00 0.00 25 1013.1
20260508190805 73 19 7.0 13.0 0.00 0.00 0.00 26 1013.2
20260508190304 73 358 9.0 13.0 0.00 0.00 0.00 25 1013.5
20260508185805 73 351 8.0 14.0 0.00 0.00 0.00 25 1013.5
20260508185306 73 351 10.0 13.0 0.00 0.00 0.00 26 1013.5
20260508184804 73 21 9.0 14.0 0.00 0.00 0.00 26 1013.5
20260508184305 73 38 5.0 12.0 0.00 0.00 0.00 27 1013.5
20260508183804 72 3 7.0 12.0 0.00 0.00 0.00 28 1013.7